CZ-6A DEB

Satellite information

Favourite Embed

Satellite Type and Status

DEBRISIN ORBIT

Key statistics

Satellite CZ-6A DEB at a glance.

Uptime

1129

Days in orbit

Revolutions

≈ 15.0

Per day

Orbit

SSO

Sun Synchronous Orbit

Inclination

98.6

Latest

Satellite identification and parameters

Extended collection of information and parameters for CZ-6A DEB.

Object identification

Identified? True

Debris? True

Object name: CZ-6A DEB

International designator: 2022-151AAA

Object number (NORAD): 55878

Object ID (CCSDS): 55878

Country: PEOPLES REPUBLIC OF CHINA (PRC)

Current information (Y/N): Y

RCS size: SMALL

Orbital parameters

Period: 96.037 minutes

Inclination: 98.633 deg

SMA: 6946.803 km

Apoapsis: 617.286 km

Periapsis: 520.051 km

RAAN: 64.476 deg

Eccentricy: 0.0069986

Argument of periapsis: 70.8069 deg

Mean anomaly: 290.0708 deg

Mean motion: 14.99426717 rev/day

Mean motion (dot): 0.00066273 rev/day2

B* drag term: 0.0051017942 1/REarth

Two-line elements (TLE)

Creation date: Dec. 12, 2025, 10:14 a.m.

Reference frame: TEME

Reference center: EARTH

Epoch: Dec. 12, 2025, 4:05 a.m. UTC

TLE line 0: 0 CZ-6A DEB

TLE line 1: 1 55878U 22151AAA 25346.17052668 .00066273 00000-0 51018-2 0 9990

TLE line 2: 2 55878 98.6330 64.4760 0069986 70.8069 290.0708 14.99426717152069

Live tracking on map

Real-time ground track for satellite CZ-6A DEB.

In-orbit conjunctions

A list of the most updated potential collisions computed for object CZ-6A DEB.

Target Orbit TCA Probability of collision Miss distance Type
SL-14 R/B LEO 2025-07-27 10:47:35 0.0001372169 122.0 (m) ROCKET BODY
OBJECT C SSO 2025-06-29 10:04:09 0.0001546674 668.0 (m) UNKNOWN
SPOT 5 SSO 2024-05-28 19:08:20 0.0002701387 722.0 (m) PAYLOAD

Associated space launch

Chinese satellite reported for atmospheric/ocean/environmental/spatial parameter research purposes, details TBD.

CZ-6A DEB was lifted into orbit during the mission ‘Long March 6A | Yunhai 3’, on board a Long March 6A space rocket.

The launch took place on Nov. 11, 2022, 10:52 p.m. from Launch Complex 9A.

For more information about the launch, click the button.

Launch to space Long March 6A | Yunhai 3
Long March 6A | Yunhai 3

Agency: N/A

Status: Launch Successful

Launch date: Nov. 11, 2022, 10:52 p.m. UTC

Rocket: Long March 6A

Launch pad: Launch Complex 9A

Location: Taiyuan Satellite Launch Center, People's Republic of China

...

Latest news about this satellite

There are no fresh news available about this satellite. Check back as we update our databases every day.


Newsletter sign-up

Weekly statistics, charts and insights to help you stay on top of the space industry.